• In Uzbekistan
  • List of Countries
  • For 7 days
  • Water Temperature
  • Satellite Maps
  • Weather Map
  • Weather Widgets
  • user-avatar
    Login

    Hourly Weather Bobo-Dioulasso

    Today, 25 April, Thursday

    Time Temperature Precipitation Wind Pressure Humidity
    00:00 +33°C° 0 mm 4 mps 723 mmHg 57%
    01:00 +32°C° 1.3 mm 4 mps 723 mmHg 60%
    02:00 +30°C° 1.3 mm 4 mps 723 mmHg 63%
    03:00 +29°C° 1.3 mm 4 mps 723 mmHg 66%
    04:00 +29°C° 0.1 mm 3 mps 723 mmHg 68%
    05:00 +28°C° 0.1 mm 3 mps 723 mmHg 71%
    06:00 +28°C° 0.1 mm 2 mps 722 mmHg 73%
    07:00 +29°C° 0 mm 2 mps 723 mmHg 66%
    08:00 +31°C° 0 mm 2 mps 723 mmHg 59%
    09:00 +34°C° 0 mm 2 mps 724 mmHg 53%
    10:00 +35°C° 0 mm 2 mps 724 mmHg 47%
    11:00 +37°C° 0 mm 2 mps 724 mmHg 41%
    12:00 +39°C° 0 mm 3 mps 724 mmHg 35%
    13:00 +39°C° 0 mm 3 mps 723 mmHg 35%
    14:00 +39°C° 0 mm 3 mps 722 mmHg 35%
    15:00 +39°C° 0 mm 3 mps 721 mmHg 35%
    16:00 +38°C° 0 mm 3 mps 721 mmHg 36%
    17:00 +38°C° 0 mm 2 mps 721 mmHg 37%
    18:00 +38°C° 0 mm 2 mps 721 mmHg 38%
    19:00 +37°C° 0 mm 2 mps 722 mmHg 40%
    20:00 +36°C° 0 mm 2 mps 722 mmHg 42%
    21:00 +36°C° 0 mm 2 mps 723 mmHg 45%
    22:00 +34°C° 0 mm 1 mps 723 mmHg 47%
    23:00 +34°C° 0 mm 1 mps 723 mmHg 49%

    Tomorrow, 26 April, Friday

    Time Temperature Precipitation Wind Pressure Humidity
    00:00 +33°C° 0 mm 1 mps 723 mmHg 50%
    01:00 +33°C° 0 mm 1 mps 722 mmHg 53%
    02:00 +32°C° 0 mm 1 mps 722 mmHg 55%
    03:00 +32°C° 0 mm 1 mps 722 mmHg 57%
    04:00 +31°C° 0 mm 2 mps 722 mmHg 58%
    05:00 +31°C° 0 mm 2 mps 722 mmHg 60%
    06:00 +31°C° 0 mm 2 mps 722 mmHg 61%
    07:00 +32°C° 0 mm 2 mps 722 mmHg 57%
    08:00 +34°C° 0 mm 2 mps 723 mmHg 53%
    09:00 +35°C° 0 mm 3 mps 723 mmHg 48%
    10:00 +38°C° 0 mm 2 mps 723 mmHg 42%
    11:00 +40°C° 0 mm 1 mps 723 mmHg 35%
    12:00 +39°C° 0 mm 0 mps 723 mmHg 29%
    13:00 +41°C° 0 mm 1 mps 722 mmHg 29%
    14:00 +41°C° 0 mm 1 mps 721 mmHg 29%
    15:00 +40°C° 0 mm 2 mps 720 mmHg 28%
    16:00 +40°C° 0 mm 2 mps 720 mmHg 29%
    17:00 +39°C° 0 mm 1 mps 720 mmHg 30%
    18:00 +39°C° 0 mm 1 mps 720 mmHg 30%
    19:00 +37°C° 0 mm 1 mps 720 mmHg 32%
    20:00 +37°C° 0 mm 1 mps 721 mmHg 33%
    21:00 +36°C° 0 mm 1 mps 721 mmHg 34%
    22:00 +35°C° 0 mm 1 mps 721 mmHg 36%
    23:00 +35°C° 0 mm 1 mps 721 mmHg 37%

    Day after tomorrow, 27 April, Saturday

    Time Temperature Precipitation Wind Pressure Humidity
    00:00 +34°C° 0 mm 1 mps 721 mmHg 38%
    01:00 +34°C° 0 mm 1 mps 720 mmHg 40%
    02:00 +34°C° 0 mm 2 mps 719 mmHg 42%
    03:00 +34°C° 0 mm 2 mps 719 mmHg 45%
    04:00 +32°C° 0 mm 2 mps 719 mmHg 47%
    05:00 +32°C° 0 mm 2 mps 720 mmHg 48%
    06:00 +31°C° 0 mm 2 mps 720 mmHg 50%
    07:00 +34°C° 0 mm 3 mps 721 mmHg 47%
    08:00 +35°C° 0 mm 3 mps 721 mmHg 43%
    09:00 +37°C° 0 mm 4 mps 722 mmHg 39%
    10:00 +40°C° 0 mm 4 mps 722 mmHg 34%
    11:00 +41°C° 0 mm 4 mps 722 mmHg 28%
    12:00 +43°C° 0 mm 4 mps 721 mmHg 22%
    13:00 +44°C° 0 mm 4 mps 720 mmHg 19%
    14:00 +44°C° 0 mm 3 mps 720 mmHg 16%
    15:00 +45°C° 0 mm 3 mps 719 mmHg 13%
    16:00 +43°C° 0 mm 2 mps 719 mmHg 14%
    17:00 +43°C° 0 mm 2 mps 718 mmHg 14%
    18:00 +42°C° 0 mm 1 mps 718 mmHg 14%
    19:00 +41°C° 0 mm 1 mps 719 mmHg 15%
    20:00 +39°C° 0 mm 1 mps 719 mmHg 16%
    21:00 +38°C° 0 mm 2 mps 720 mmHg 17%
    22:00 +37°C° 0 mm 2 mps 720 mmHg 19%
    23:00 +37°C° 0 mm 2 mps 720 mmHg 21%

    28 April, Sunday

    Time Temperature Precipitation Wind Pressure Humidity
    00:00 +36°C° 0 mm 2 mps 720 mmHg 23%
    01:00 +35°C° 0 mm 3 mps 719 mmHg 31%
    02:00 +34°C° 0 mm 4 mps 719 mmHg 38%
    03:00 +33°C° 0 mm 5 mps 719 mmHg 45%
    04:00 +33°C° 0 mm 5 mps 719 mmHg 52%
    05:00 +32°C° 0 mm 5 mps 719 mmHg 60%
    06:00 +30°C° 0 mm 5 mps 720 mmHg 67%
    07:00 +32°C° 0 mm 5 mps 720 mmHg 63%
    08:00 +33°C° 0 mm 5 mps 721 mmHg 58%
    09:00 +34°C° 0 mm 5 mps 721 mmHg 54%
    10:00 +36°C° 0 mm 4 mps 721 mmHg 47%
    11:00 +38°C° 0 mm 4 mps 721 mmHg 40%
    12:00 +41°C° 0 mm 4 mps 721 mmHg 33%
    13:00 +42°C° 0 mm 3 mps 720 mmHg 29%
    14:00 +43°C° 0 mm 3 mps 719 mmHg 25%
    15:00 +45°C° 0 mm 2 mps 719 mmHg 21%
    16:00 +43°C° 0 mm 2 mps 719 mmHg 21%
    17:00 +42°C° 0 mm 2 mps 719 mmHg 22%
    18:00 +42°C° 0 mm 2 mps 719 mmHg 22%
    19:00 +41°C° 0 mm 2 mps 719 mmHg 26%
    20:00 +39°C° 0 mm 3 mps 720 mmHg 30%
    21:00 +38°C° 0 mm 3 mps 720 mmHg 34%
    22:00 +37°C° 0 mm 4 mps 720 mmHg 39%
    23:00 +36°C° 0 mm 4 mps 720 mmHg 43%

    29 April, Monday

    Time Temperature Precipitation Wind Pressure Humidity
    00:00 +36°C° 0 mm 4 mps 720 mmHg 48%
    01:00 +35°C° 0 mm 4 mps 720 mmHg 50%
    02:00 +35°C° 0 mm 5 mps 719 mmHg 51%
    03:00 +34°C° 0 mm 5 mps 719 mmHg 53%
    04:00 +33°C° 0 mm 5 mps 719 mmHg 57%
    05:00 +33°C° 0 mm 5 mps 720 mmHg 60%
    06:00 +32°C° 0 mm 5 mps 720 mmHg 64%
    07:00 +33°C° 0 mm 5 mps 721 mmHg 61%
    08:00 +34°C° 0 mm 5 mps 722 mmHg 59%
    09:00 +35°C° 0 mm 5 mps 722 mmHg 56%
    10:00 +36°C° 0 mm 5 mps 722 mmHg 51%
    11:00 +39°C° 0 mm 5 mps 722 mmHg 46%
    12:00 +40°C° 0 mm 5 mps 721 mmHg 42%
    13:00 +41°C° 0 mm 4 mps 721 mmHg 38%
    14:00 +42°C° 0 mm 4 mps 720 mmHg 35%
    15:00 +43°C° 0 mm 3 mps 719 mmHg 32%
    16:00 +42°C° 0 mm 3 mps 719 mmHg 33%
    17:00 +40°C° 0 mm 3 mps 719 mmHg 34%
    18:00 +40°C° 0 mm 3 mps 720 mmHg 36%
    19:00 +40°C° 0 mm 4 mps 720 mmHg 39%
    20:00 +37°C° 0 mm 4 mps 720 mmHg 43%
    21:00 +36°C° 0 mm 4 mps 721 mmHg 47%
    22:00 +35°C° 1.1 mm 4 mps 721 mmHg 51%
    23:00 +34°C° 1.1 mm 3 mps 721 mmHg 55%

    30 April, Tuesday

    Time Temperature Precipitation Wind Pressure Humidity
    00:00 +34°C° 1.1 mm 3 mps 720 mmHg 59%
    01:00 +33°C° 5.3 mm 4 mps 720 mmHg 64%
    02:00 +32°C° 5.3 mm 5 mps 720 mmHg 69%
    03:00 +30°C° 5.3 mm 5 mps 720 mmHg 74%
    04:00 +30°C° 0.9 mm 5 mps 720 mmHg 72%
    05:00 +30°C° 0.9 mm 4 mps 721 mmHg 70%
    06:00 +30°C° 0.9 mm 3 mps 721 mmHg 68%
    07:00 +32°C° 0 mm 4 mps 722 mmHg 66%
    08:00 +33°C° 0 mm 4 mps 722 mmHg 63%
    09:00 +33°C° 0 mm 5 mps 723 mmHg 60%
    10:00 +35°C° 0 mm 5 mps 723 mmHg 55%
    11:00 +36°C° 0 mm 4 mps 722 mmHg 50%
    12:00 +38°C° 0 mm 4 mps 722 mmHg 45%
    13:00 +38°C° 0 mm 4 mps 721 mmHg 43%
    14:00 +40°C° 0 mm 4 mps 721 mmHg 41%
    15:00 +41°C° 0 mm 4 mps 720 mmHg 39%
    16:00 +40°C° 0 mm 4 mps 720 mmHg 41%
    17:00 +38°C° 0 mm 4 mps 720 mmHg 44%
    18:00 +37°C° 0 mm 4 mps 720 mmHg 46%
    19:00 +37°C° 0 mm 3 mps 720 mmHg 48%
    20:00 +36°C° 0 mm 3 mps 721 mmHg 50%
    21:00 +35°C° 0 mm 3 mps 721 mmHg 52%
    22:00 +35°C° 0.1 mm 3 mps 721 mmHg 53%
    23:00 +35°C° 0.1 mm 3 mps 721 mmHg 54%
    Show more